This demonstration page uses our WeatherBlox Daily Observations layout. Learn more.

40.92945, -100.16068

Hourly Observations for May 10, 2016

Temp ( °F °C ) Dew Point ( °F °C ) Humidity (%) Winds ( mph kmh ) Pressure ( in mb ) Visibility ( mi km ) Precip ( " mm )
12:15 am 00:15 Partly Cloudy with Mist and Fog 55 13 54 12 94 94 E 5 7 29.59 1002 5 8.0467 N/A
12:35 am 00:35 Clear 55 13 53 11.8 92 92 Calm 29.59 1002 7 11.26538 N/A
12:55 am 00:55 Clear with Mist and Fog 55 12.8 53 11.8 94 94 Calm 29.65 1004 5 8.0467 N/A
1:15 am 01:15 Clear with Mist and Fog 52 11.3 50 10.1 92 92 ENE 7 11 29.62 1003 3 4.82802 N/A
1:35 am 01:35 Clear with Mist and Fog 52 11.1 50 10.1 94 94 E 7 11 29.62 1003 4 6.43736 N/A
1:55 am 01:55 Clear with Mist and Fog 55 12.6 53 11.6 94 94 ESE 8 13 29.62 1003 5 8.0467 N/A
2:15 am 02:15 Clear 55 12.6 53 11.4 92 92 ESE 7 11 29.62 1003 7 11.26538 N/A
2:35 am 02:35 Clear 54 12.2 51 10.7 91 91 ESE 3 6 29.65 1004 10 16.0934 N/A
2:55 am 02:55 Clear 53 11.7 50 10.2 91 91 Calm 29.65 1004 10 16.0934 N/A
3:15 am 03:15 Clear 53 11.4 49 9.7 89 89 Calm 29.65 1004 10 16.0934 N/A
3:35 am 03:35 Clear 51 10.7 49 9.2 91 91 SE 5 7 29.68 1005 10 16.0934 N/A
3:55 am 03:55 Clear 51 10.6 49 9.2 91 91 SE 5 7 29.65 1004 10 16.0934 N/A
4:15 am 04:15 Clear 51 10.3 49 9.2 93 93 SE 6 9 29.68 1005 10 16.0934 N/A
4:35 am 04:35 Clear 52 10.9 49 9.4 91 91 ENE 3 6 29.68 1005 10 16.0934 N/A
4:55 am 04:55 Clear 49 9.5 47 8.3 92 92 E 6 9 29.71 1006 7 11.26538 N/A
5:15 am 05:15 Clear 48 9.1 47 8.1 94 94 E 7 11 29.71 1006 7 11.26538 N/A
5:35 am 05:35 Mostly Cloudy 49 9.6 48 8.7 94 94 E 8 13 29.71 1006 7 11.26538 N/A
5:55 am 05:55 Partly Cloudy 51 10.4 48 9 91 91 ESE 7 11 29.68 1005 10 16.0934 N/A
6:15 am 06:15 Partly Cloudy 51 10.4 48 9 91 91 Calm 29.68 1005 10 16.0934 N/A
6:35 am 06:35 Partly Cloudy 50 10 47 8.6 91 91 Calm 29.74 1007 10 16.0934 N/A
6:55 am 06:55 Mostly Cloudy 49 9.2 47 8.1 93 93 ESE 5 7 29.74 1007 7 11.26538 N/A
7:15 am 07:15 Mostly Cloudy 51 10.5 49 9.4 93 93 SSW 5 7 29.71 1006 10 16.0934 N/A
7:35 am 07:35 Cloudy 52 11 49 9.7 92 92 SW 7 11 29.71 1006 7 11.26538 N/A
7:55 am 07:55 Cloudy with Fog 52 11 50 10 94 94 SSW 5 7 29.71 1006 5 8.0467 N/A
8:15 am 08:15 Cloudy with Fog 52 11.1 50 10.2 94 94 Calm 29.71 1006 0.25 0.402335 N/A
8:35 am 08:35 Cloudy with Mist and Fog 53 11.5 51 10.6 94 94 Calm 29.71 1006 0.75 1.207005 N/A
8:55 am 08:55 Cloudy with Mist and Fog 54 12 52 11.2 95 95 SW 3 6 29.74 1007 0.75 1.207005 N/A
9:15 am 09:15 Cloudy with Mist and Fog 55 12.6 53 11.7 94 94 W 3 6 29.74 1007 1.5 2.41401 N/A
9:35 am 09:35 Cloudy with Mist and Fog 57 13.7 55 12.8 94 94 W 6 9 29.74 1007 2 3.21868 N/A
9:55 am 09:55 Cloudy with Mist and Fog 58 14.4 55 12.8 90 90 Calm 29.71 1006 5 8.0467 N/A
10:15 am 10:15 Partly Cloudy 59 15.1 55 12.7 86 86 N 3 6 29.71 1006 10 16.0934 N/A
10:35 am 10:35 Sunny 61 15.9 56 13.1 84 84 Calm 29.71 1006 10 16.0934 N/A
10:55 am 10:55 Sunny 63 17.4 56 13.5 78 78 Calm 29.71 1006 10 16.0934 N/A
11:15 am 11:15 Sunny 65 18.1 56 13.3 74 74 Calm 29.68 1005 10 16.0934 N/A
11:35 am 11:35 Sunny 66 19.1 57 13.7 71 71 Calm 29.68 1005 10 16.0934 N/A
11:55 am 11:55 Sunny 67 19.6 57 13.9 70 70 Calm 29.71 1006 10 16.0934 N/A
12:15 pm 12:15 Sunny 69 20.6 58 14.4 68 68 Calm 29.71 1006 10 16.0934 N/A
12:35 pm 12:35 Sunny 70 21.2 59 15.1 68 68 Calm 29.68 1005 10 16.0934 N/A
12:55 pm 12:55 Sunny 72 22 58 14.7 63 63 NW 5 7 29.68 1005 10 16.0934 N/A
1:15 pm 13:15 Sunny 73 22.9 59 15.2 62 62 N 6 9 29.68 1005 10 16.0934 N/A
1:35 pm 13:35 Sunny 74 23.3 60 15.5 62 62 N 3 6 29.68 1005 10 16.0934 N/A
1:55 pm 13:55 Sunny 75 23.8 61 16.2 63 63 NNE 5 7 29.68 1005 10 16.0934 N/A
2:15 pm 14:15 Sunny 75 23.8 60 15.3 59 59 NNE 6 9 29.68 1005 10 16.0934 N/A
2:35 pm 14:35 Partly Cloudy 75 23.7 59 14.8 58 58 NW 13 20 29.68 1005 10 16.0934 N/A
2:55 pm 14:55 Partly Cloudy 74 23.3 58 14.5 58 58 NW 10 17 29.68 1005 10 16.0934 N/A
3:15 pm 15:15 Partly Cloudy 75 24.1 57 14 53 53 WNW 12 19 29.68 1005 10 16.0934 N/A
3:35 pm 15:35 Sunny 76 24.6 57 13.9 51 51 WNW 12 19 29.71 1006 10 16.0934 N/A
3:55 pm 15:55 Sunny 75 24 56 13.4 52 52 NW 10 17 29.71 1006 10 16.0934 N/A
4:15 pm 16:15 Partly Cloudy 74 23.5 56 13.3 53 53 NNW 21 33 29.71 1006 10 16.0934 N/A
4:35 pm 16:35 Sunny 73 22.8 53 11.8 50 50 NNW 23 37 29.71 1006 10 16.0934 N/A
4:55 pm 16:55 Sunny 73 22.5 51 10.7 47 47 NNW 21 33 29.71 1006 10 16.0934 N/A
5:15 pm 17:15 Sunny 72 22.3 51 10.7 48 48 NNW 21 33 29.71 1006 10 16.0934 N/A
5:35 pm 17:35 Sunny 71 21.9 49 9.3 45 45 NNW 20 31 29.71 1006 10 16.0934 N/A
5:55 pm 17:55 Partly Cloudy 69 20.7 48 8.9 47 47 NNW 18 30 29.77 1008 10 16.0934 N/A
6:15 pm 18:15 Mostly Cloudy 68 20 46 7.8 45 45 NNW 18 30 29.77 1008 10 16.0934 N/A
6:35 pm 18:35 Cloudy 67 19.5 46 7.7 47 47 NNW 20 31 29.8 1009 10 16.0934 N/A
6:55 pm 18:55 Cloudy with Nearby Thunderstorms 67 19.5 47 8.1 48 48 NNW 17 28 29.8 1009 10 16.0934 N/A
7:15 pm 19:15 Mostly Cloudy 65 18.6 47 8.2 51 51 NNW 15 24 29.83 1010 10 16.0934 N/A
7:35 pm 19:35 Cloudy 65 18.5 46 7.9 50 50 NNW 20 31 29.85 1011 10 16.0934 N/A
7:55 pm 19:55 Cloudy with Nearby Thunderstorms 64 17.7 46 7.5 51 51 N 15 24 29.85 1011 10 16.0934 N/A
8:15 pm 20:15 Cloudy with Light Rain 63 17.2 47 8.1 55 55 N 10 17 29.85 1011 10 16.0934 N/A
8:35 pm 20:35 Cloudy 62 16.6 47 8.3 58 58 N 9 15 29.88 1012 10 16.0934 N/A
8:55 pm 20:55 Cloudy 62 16.5 48 8.7 60 60 NNE 8 13 29.88 1012 10 16.0934 N/A
9:15 pm 21:15 Cloudy 61 15.9 49 9.4 66 66 N 9 15 29.94 1014 10 16.0934 N/A
9:35 pm 21:35 Cloudy with Light Rain 58 14.6 49 9.2 70 70 N 13 20 29.91 1013 10 16.0934 N/A
9:55 pm 21:55 Cloudy with Nearby Thunderstorms 57 13.8 48 9.1 73 73 N 17 28 29.94 1014 7 11.26538 0.03 0.762
10:15 pm 22:15 Cloudy with Light Rain 55 13 49 9.5 79 79 N 17 28 29.94 1014 10 16.0934 N/A
10:35 pm 22:35 Cloudy with Rain 55 12.5 48 8.8 78 78 NNE 16 26 29.97 1015 7 11.26538 0.05 1.27
10:55 pm 22:55 Cloudy 53 11.9 47 8.2 78 78 N 16 26 30 1016 10 16.0934 0.08 2.032
11:15 pm 23:15 Cloudy with Light Rain 53 11.5 46 8 79 79 NE 18 30 29.97 1015 10 16.0934 0.01 0.254
11:35 pm 23:35 Cloudy with Light Rain 53 11.5 47 8.1 80 80 NNW 12 19 30.03 1017 10 16.0934 0.01 0.254
11:55 pm 23:55 Cloudy 53 11.5 47 8.5 82 82 N 13 20 30.03 1017 5 8.0467 0.07 1.778

Powered by AerisWeather